Location: Rounton
(54.4000°N, 1.3500°W)
Time: 00:46:48
(UTC+00:00)

Explorer 7 - Visible Passes

Search period start: 30 November 2021 00:00
Search period end: 10 December 2021 00:00
Orbit: 483 x 675 km, 50.3° (Epoch: 29 November)

Date Brightness Start Highest point End Pass type
(mag) Time Alt. Az. Time Alt. Az. Time Alt. Az.
30 Nov 10.0 06:41:32 10° SSE 06:43:04 12° SE 06:44:35 10° ESE visible
01 Dec 9.7 06:44:12 10° S 06:46:50 16° SSE 06:49:24 10° ESE visible
02 Dec 9.3 06:47:25 10° SSW 06:50:39 22° SSE 06:53:44 10° E visible
03 Dec 8.9 06:50:55 10° SW 06:54:30 27° SSE 06:57:55 10° E visible
04 Dec 9.7 05:16:36 10° S 05:18:41 13° SE 05:20:44 10° ESE visible
04 Dec 8.4 06:54:33 10° SW 06:58:23 33° SSE 07:02:00 10° E visible
05 Dec 9.3 05:19:31 10° S 05:22:28 18° SSE 05:25:20 10° ESE visible
05 Dec 8.1 06:58:19 10° SW 07:02:17 39° SSE 07:06:01 10° E visible
06 Dec 8.9 05:24:04 16° SSW 05:26:16 24° SSE 05:29:36 10° E visible
06 Dec 7.8 07:02:10 10° WSW 07:06:12 44° S 07:10:01 10° E visible
07 Dec 8.5 05:28:23 22° SSW 05:30:07 30° SSE 05:33:44 10° E visible
07 Dec 7.7 07:06:04 10° WSW 07:10:08 47° S 07:13:59 10° ESE visible
08 Dec 10.0 03:56:19 11° ESE 03:56:19 11° ESE 03:56:44 10° ESE visible
08 Dec 8.1 05:32:36 28° SSW 05:33:59 36° SSE 05:37:46 10° E visible
08 Dec 7.6 07:09:58 10° WSW 07:14:04 48° S 07:17:54 10° ESE visible
09 Dec 9.8 04:00:24 13° ESE 04:00:24 13° ESE 04:01:10 10° E visible
09 Dec 7.8 05:36:41 33° SSW 05:37:53 42° SSE 05:41:47 10° E visible
09 Dec 7.7 07:13:55 10° W 07:17:59 46° S 07:21:49 10° ESE visible
